sat.trackr.live / text

‹ back to catalog

VSP ROSE

NORAD 59124 · 2024-043AC

PAYLOAD ACTIVE UNKNOWN

§ Identity

Operator
Country
BEL
Launch date
2024-03-04
Launch site
AFWTR
Launch vehicle
Mass (kg)
RCS (m²)

External: N2YO · Heavens-Above · Gunter

§ Orbital elements

Epoch: 2026-05-25T04:38:24.370368Z

Period
94.21 min
Inclination
97.5581°
Eccentricity
0.0009892
Mean motion
15.28462892 rev/d
Perigee alt
473.6 km
Apogee alt
487.2 km
Semi-major
6,858.5 km
B*
1.4513e-4
RAAN
281.2390°
Arg perigee
335.8699°
Mean anomaly
24.2076°
Rev number
12,347

§ Raw data

VSP ROSE1 59124U 24043AC  26145.19333762  .00003947  00000+0  14513-3 0  99952 59124  97.5581 281.2390 0009892 335.8699  24.2076 15.28462892123479

JSON: /api/v1/satellites/59124 · /tle

For live sub-satellite position, see the globe view (requires WebGL).

§ Visibility from observer

Set your observer location to see the next 7 days of passes ≥ 10°. The values pass through the URL so the page stays shareable.

No JS? Fill the form by hand. The geolocation button needs JavaScript.